Location: ??????
(56.0120°N, 39.1740°E)
Time: 11:45:43
(UTC+00:00)

ATLAS 5 CENTAUR R/B - Pass Details

Date: 14 April 2026
Orbit: 361 x 1064 km, 63.3° (Epoch: 10 May)

Event Time Altitude Azimuth Distance (km) Brightness Sun altitude
Rises 18:08:02 0° 288° (WNW) 2,309 5.9 -12.9°
Reaches altitude 10° 18:10:11 10° 303° (WNW) 1,517 5.0 -13.2°
Maximum altitude 18:13:01 25° 2° (N) 978 3.1 -13.5°
Drops below altitude 10° 18:16:18 10° 59° (ENE) 1,768 3.7 -13.8°
Enters shadow 18:18:24 - 70° (ENE) 2,557 4.5 -14.0°
